Location: Benl�se
(55.4631°N, 11.7940°E)
Time: 05:49:53
(UTC+00:00)

Daily predictions for brighter satellites

Satellite Brightness Start Highest point End
(mag) Time Altitude Azimuth Time Altitude Azimuth Time Altitude Azimuth
Cosmos 1025 Rocket 4.0 00:01:53 10° NNW 00:05:43 32° W 00:06:21 31° WSW
Okean 1 Rocket 3.1 00:09:30 47° SSE 00:10:41 73° E 00:15:04 10° NNE
SJ 16-02 1.7 00:09:53 41° SSE 00:10:57 52° ESE 00:15:16 10° NNE
Okean 2 Rocket 3.8 00:10:41 34° WSW 00:12:06 46° WNW 00:16:29 10° N
SL-16 R/B 2.5 00:06:39 10° NW 00:12:06 48° WSW 00:13:48 37° SSW
SL-14 R/B 3.3 00:12:08 10° N 00:16:04 70° ENE 00:17:08 45° SE
Cosmos 724 4.3 00:10:48 10° NW 00:16:47 72° SW 00:20:59 21° SSE
Cosmos 2263 Rocket 3.9 00:14:58 15° SE 00:17:38 21° ESE 00:21:44 10° NE
MOZ.5/SAFIR/RUBIN 5/SL-8 3.7 00:22:13 34° SSE 00:24:18 88° ENE 00:29:03 10° NNW
KORONAS-FOTON 4.3 00:21:15 10° NNW 00:24:51 41° W 00:25:10 40° WSW
Cosmos 158 Rocket 4.4 00:23:05 10° NW 00:28:15 49° WSW 00:29:59 36° SSW
Okean 1-7 Rocket 3.8 00:24:40 10° N 00:29:06 68° ENE 00:31:14 30° SSE
ADEOS II 4.1 00:25:31 10° NE 00:29:24 20° E 00:33:15 10° SE
Cosmos 1937 Rocket 4.4 00:27:08 25° SSE 00:29:30 39° ESE 00:34:24 10° NE
CZ-4C R/B 3.5 00:29:47 34° SE 00:31:09 60° ENE 00:34:51 10° N
Cosmos 990 Rocket 4.3 00:29:47 33° S 00:31:52 54° ESE 00:36:55 10° NE
Cosmos 2297 Rocket 2.4 00:28:55 28° SW 00:31:57 66° NW 00:37:37 10° NNE
Cosmos 2266 Rocket 4.2 00:27:32 10° N 00:33:56 73° ENE 00:38:25 20° SSE
Cosmos 2112 Rocket 4.3 00:30:04 10° NW 00:35:06 49° WSW 00:36:46 36° SSW
Cosmos 1455 Rocket 3.8 00:35:30 27° SSE 00:37:30 46° E 00:41:48 10° NNE
USA 229 DEB 4.1 00:36:45 28° S 00:39:52 47° SE 00:46:28 10° NE
USA 229 4.1 00:36:53 28° S 00:39:59 47° SE 00:46:33 10° NE
Cosmos 2237 Rocket 4.1 00:37:48 10° WNW 00:40:31 14° W 00:41:12 13° WSW
UNK 3.7 00:39:00 30° SSE 00:41:22 89° ENE 00:46:06 10° NNW
Cosmos 1726 4.2 00:39:49 14° SE 00:41:50 20° E 00:44:35 10° NE
Cosmos 2219 3.8 00:41:47 21° WSW 00:45:19 51° NW 00:50:50 10° NNE
Cosmos 1932 4.4 00:38:58 10° NW 00:45:31 82° SW 00:51:56 10° SE
Meteor 1-15 Rocket 4.4 00:43:07 31° SW 00:45:48 62° WNW 00:51:21 10° N
Cosmos 1892 Rocket 3.6 00:41:47 10° NNW 00:46:14 69° W 00:47:51 38° S
Cosmos 1898 Rocket 3.7 00:43:57 32° S 00:46:18 64° ESE 00:51:28 10° NNE
Meteor 1-24 Rocket 3.7 00:41:22 10° NNW 00:46:44 61° W 00:49:07 32° SSW
Meteor 1-29 3.0 00:44:54 10° N 00:48:21 65° WNW 00:49:04 49° SW
Cosmos 1674 4.1 00:46:40 10° NW 00:49:40 23° W 00:49:53 23° W
Cosmos 1680 Rocket 4.3 00:45:28 10° NW 00:50:09 34° WSW 00:51:28 30° SW
NOSS 3-1 (A) 4.1 00:48:36 25° S 00:51:16 40° ESE 00:57:16 10° NE
Cosmos 1603 3.7 00:47:06 10° NW 00:52:51 72° WSW 00:57:17 17° SSE
Lacrosse 4 Rocket 4.1 00:50:17 10° WNW 00:53:06 17° NNW 00:55:53 10° NNE
IRAS Rocket 4.2 00:49:56 26° S 00:53:14 71° WSW 00:58:52 10° NNW
Spot 1 4.2 00:52:54 39° SSW 00:53:57 50° WSW 00:57:57 10° NNW
Cosmos 1461 3.0 00:55:29 35° SW 00:57:22 88° SE 01:02:04 10° NE
ATLAS 3B R/B 3.9 00:57:37 10° WNW 01:03:54 42° N 01:10:21 10° ENE
CZ-2D R/B 2.3 00:59:09 10° NNE 01:04:40 72° ESE 01:08:00 25° S
Cosmos 1340 Rocket 2.9 01:07:07 31° S 01:08:52 67° E 01:12:47 10° NNE
Cosmos 1758 3.5 01:08:43 29° S 01:10:38 65° E 01:14:37 10° NNE
Cosmos 1943 3.2 01:05:50 10° NW 01:11:23 63° WSW 01:16:10 14° SSE
Cosmos 1766 4.1 01:11:18 29° WSW 01:12:36 38° WNW 01:16:15 10° N
SL-16 R/B 2.7 01:09:25 23° S 01:13:17 56° WSW 01:19:27 10° NNW
Timation 1 Rocket 4.5 01:10:12 26° SSW 01:13:42 69° ESE 01:19:38 10° NE
Cosmos 1626 3.2 01:11:33 10° NNW 01:14:45 27° W 01:15:17 26° WSW
Cosmos 1655 Rocket 4.3 01:08:46 10° NNW 01:14:49 53° W 01:18:27 24° SSW
Cosmos 1733 4.0 01:14:34 29° WSW 01:15:53 40° WNW 01:19:34 10° N
IRS-1D 4.1 01:16:41 10° NNE 01:21:41 52° E 01:25:39 16° S
Cosmos 2227 Rocket 3.1 01:18:31 16° WSW 01:22:47 41° NW 01:28:10 10° NNE
NPP 3.7 01:18:03 10° NNE 01:23:29 83° ESE 01:27:05 22° SSW
Helios 1B rocket 3.9 01:20:33 10° N 01:23:58 26° WNW 01:25:58 18° WSW
Cosmos 1544 Rocket 3.6 01:22:37 26° S 01:25:08 88° E 01:29:38 10° NNE
Cosmos 1470 2.8 01:24:18 30° SSW 01:26:11 76° WNW 01:30:12 10° N
Cosmos 1953 3.0 01:23:54 19° SSE 01:26:35 51° E 01:30:34 10° NNE
Meteor 1-22 Rocket 4.4 01:25:04 24° SW 01:28:06 56° WNW 01:33:29 10° N
USA 238 DEB 4.5 01:21:24 10° NW 01:28:20 58° NNE 01:35:36 10° ESE
USA 238 4.5 01:21:30 10° NW 01:28:26 58° NNE 01:35:42 10° ESE
AQUA 3.8 01:26:30 10° NNE 01:31:18 83° ESE 01:34:25 22° SSW
CENTAUR R/B 3.8 01:27:16 10° WNW 01:34:28 55° NNE 01:42:46 10° E
Resurs 1-4 Rocket 2.2 01:32:51 10° NNE 01:38:07 68° WNW 01:41:36 21° SSW
Cosmos 1602 Rocket 3.5 01:36:50 10° NNW 01:41:10 69° W 01:44:26 17° S
Meteor 2-21 Rocket 4.4 01:35:31 10° NNW 01:41:36 84° W 01:47:42 10° S
Cosmos 2098 Rocket 4.4 01:37:18 10° NNW 01:42:21 42° W 01:46:32 19° SSW
Exosat Rocket 4.2 01:36:53 19° SSW 01:42:32 84° ESE 01:48:12 10° NNE
STPSAT 2 (USA 217) 4.5 01:39:14 10° NW 01:43:46 79° WSW 01:48:15 10° SSE
IDEFIX/ARIANE 42P 4.1 01:41:58 10° NNE 01:46:36 31° E 01:51:13 10° SSE
Meteor 2-14 Rocket 4.4 01:40:51 10° NNW 01:46:53 68° W 01:52:41 11° S
NOSS 2-3 (E) 3.9 01:44:49 22° SW 01:47:40 72° SE 01:53:08 10° NE
OPS 8737 4.4 01:46:19 24° WSW 01:47:59 60° NW 01:50:50 10° NE
Cosmos 2227 4.3 01:44:00 20° SSW 01:48:07 84° ESE 01:53:56 10° NE
USA 267 3.2 01:42:07 10° ESE 01:48:42 86° SSW 01:55:17 10° WNW
SJ 16-02 2.7 01:46:52 15° WSW 01:49:48 29° NW 01:53:42 10° NNE
NOSS 3-1 (C) 3.5 01:48:09 18° WSW 01:52:39 81° NW 01:59:35 10° NE
Cosmos 1048 Rocket 4.0 01:49:33 10° NNW 01:54:37 57° WSW 01:59:41 10° S
IRS-P3 4.5 01:51:21 10° NNE 01:56:42 65° ESE 02:01:51 11° S
Cosmos 1908 3.8 01:56:15 12° S 01:59:50 56° E 02:03:42 10° NNE
Cosmos 2263 Rocket 2.2 01:56:40 18° SSW 02:00:53 88° WNW 02:06:31 10° NE
Cosmos 2298 Rocket 4.2 01:57:57 15° SSW 02:02:20 72° ESE 02:07:42 10° NNE
Cosmos 2228 4.0 02:00:22 10° SSE 02:04:33 46° E 02:08:47 10° NNE
Meteor 1-16 Rocket 4.3 02:01:57 11° S 02:07:11 80° E 02:12:54 10° NNE
Cosmos 2084 Rocket 4.4 02:04:13 10° NW 02:08:32 53° NNE 02:12:56 10° ESE
Cosmos 372 Rocket 4.0 02:04:37 17° SSW 02:08:45 82° WNW 02:14:04 10° NNE
ADEOS II 2.1 02:04:28 10° NNE 02:09:46 83° WNW 02:14:32 13° SSW
Cosmos 1626 Rocket 4.5 02:06:38 10° NNW 02:10:25 30° W 02:13:03 17° SW
Meteor 1-28 Rocket 3.2 02:06:44 10° S 02:10:31 63° WSW 02:14:19 10° NNW
Cosmos 1937 Rocket 4.1 02:07:18 16° WSW 02:11:25 48° NW 02:16:35 10° NNE
SL-08 R/B 3.4 02:06:31 10° S 02:11:26 63° WSW 02:16:21 10° NNW
NOSS 2-3 (D) 3.9 02:08:30 17° SW 02:12:00 90° NE 02:17:37 10° NE
CZ-4B R/B 3.5 02:08:01 10° NNE 02:12:45 64° WNW 02:16:40 15° SSW
Cosmos 1455 Rocket 4.3 02:12:38 15° WSW 02:15:33 28° WNW 02:19:27 10° N
Cosmos 1269 Rocket 4.0 02:11:12 10° NNW 02:16:32 87° WSW 02:21:51 10° SSE
Cosmos 1726 2.6 02:14:19 18° SW 02:16:47 44° WNW 02:20:19 10° N
Cosmos 2285 Rocket 4.1 02:10:59 12° SSW 02:16:52 78° ESE 02:23:13 10° NNE
ATLAS CENTAUR R/B 1.8 02:13:46 15° SSW 02:16:55 48° SE 02:20:39 10° NE
Cosmos 2297 Rocket 4.0 02:12:29 10° W 02:17:04 24° NNW 02:21:39 10° NNE
NOSS 3-2 (A) 4.1 02:12:09 10° NW 02:19:17 81° NE 02:27:30 10° SE
Cosmos 1300 4.3 02:16:42 10° SSE 02:20:10 34° E 02:23:40 10° NNE
Cosmos 1553 Rocket 4.1 02:16:25 10° S 02:22:30 82° E 02:28:43 10° NNE
OPS 6432 4.3 02:20:24 10° WNW 02:23:20 53° SW 02:26:50 10° SSE
Meteor 1-11 4.2 02:17:36 10° NNW 02:23:23 76° W 02:29:03 10° S
GEOS 3 Rocket 3.8 02:18:00 10° NE 02:23:27 87° NW 02:28:25 13° SW
Cosmos 1833 Rocket 4.1 02:18:29 10° NNW 02:23:52 43° NE 02:29:14 10° ESE
Cosmos 1844 Rocket 3.7 02:18:52 10° S 02:24:02 41° ESE 02:29:13 10° NE
ERS-2 2.9 02:20:47 10° SSE 02:24:21 55° ENE 02:27:58 10° N
CBERS-1 4.2 02:21:27 10° N 02:26:29 58° WNW 02:31:10 12° SW
SL-08 ROCKET BODY 4.4 02:20:28 10° NNW 02:26:34 79° W 02:32:31 10° S
CZ-4C R/B 3.2 02:24:45 10° SSE 02:28:06 73° ENE 02:31:34 10° NNW
Cosmos 1745 Rocket 4.0 02:21:59 10° NNW 02:28:19 82° W 02:34:31 10° S
NOSS 3-2 (C) 4.3 02:22:15 10° NW 02:29:18 72° NNE 02:37:27 10° ESE
ARIANE 5 R/B 2.7 02:24:53 10° NNE 02:30:09 85° ESE 02:35:25 10° SSW
USA 229 DEB 3.9 02:24:11 11° WSW 02:30:40 68° NNW 02:37:47 10° NE
USA 229 3.9 02:24:18 11° WSW 02:30:46 68° NNW 02:37:52 10° NE
CSL-04 DEB 4.3 02:28:39 10° SSE 02:32:35 82° WSW 02:36:38 10° NNW
Cosmos 2084 3.7 02:28:47 13° SW 02:32:39 65° SE 02:37:06 10° NE
Lacrosse 4 Rocket 4.2 02:30:47 10° NNW 02:33:19 15° N 02:35:49 10° NE
Cosmos 1758 Rocket 4.0 02:29:16 10° NNW 02:33:20 42° W 02:37:26 10° SSW
ERS-1 4.5 02:30:19 10° NNE 02:35:19 88° WNW 02:40:18 10° SSW
Cosmos 1867 3.6 02:34:13 10° NW 02:39:44 85° SW 02:45:12 10° SE
NOSS 2-3 (C) 4.2 02:35:34 11° WSW 02:40:00 67° NNW 02:45:45 10° NE
NOSS 3-1 (A) 3.7 02:36:02 10° WSW 02:41:48 71° NNW 02:48:49 10° NE
Cosmos 494 Rocket 4.5 02:38:07 10° NW 02:42:52 38° WSW 02:47:39 10° S
CZ-2D R/B 3.4 02:39:43 10° N 02:44:19 28° NW 02:48:54 10° WSW
Cosmos 2150 Rocket 4.2 02:42:28 10° SW 02:47:37 64° WNW 02:52:55 10° NNE
Cosmos 2058 Rocket 3.6 02:44:07 10° S 02:48:31 62° E 02:52:53 10° NNE
Cosmos 1703 4.4 02:45:28 10° NNW 02:48:49 26° W 02:52:08 10° SSW
H-2A R/B 1.9 02:45:14 10° S 02:49:18 67° WSW 02:53:26 10° NNW
CZ-2C R/B 3.9 02:46:25 10° NNE 02:50:37 34° E 02:54:52 10° SSE
Cosmos 2058 4.0 02:47:10 10° N 02:51:16 50° ENE 02:55:21 10° SSE
Cosmos 1825 Rocket 4.2 02:47:54 10° NNW 02:51:52 35° W 02:55:48 10° SSW
S3M 4.1 02:47:59 10° SSW 02:54:24 84° W 03:00:50 10° N
Cosmos 1408 4.3 02:52:01 10° N 02:55:32 38° ENE 02:59:02 10° SE
In-Cosmos 22 Rocket 4.5 02:49:44 10° NNW 02:55:37 82° ENE 03:01:27 10° SSE
ATLAS 3B R/B 3.6 02:49:14 10° NW 02:55:49 53° NNE 03:02:35 10° E
USA 215 4.0 02:50:10 10° ENE 02:56:25 45° SE 03:02:38 10° SSW
IRS-1C 4.5 02:52:34 10° N 02:57:46 53° WNW 03:02:56 10° SW
Landsat 5 3.5 02:54:16 10° S 02:58:16 60° WSW 03:02:29 10° NNW
SL-16 R/B 4.3 02:55:44 10° WSW 02:58:20 13° W 03:00:57 10° NW
Cosmos 1125 Rocket 3.6 02:54:36 10° SW 02:59:51 72° WNW 03:05:11 10° NNE
IRS-1D 4.5 02:56:15 10° N 03:00:47 34° WNW 03:05:24 10° WSW
Cosmos 1892 3.1 02:58:24 10° N 03:02:16 68° ENE 03:06:04 10° SSE
Cosmos 1953 3.9 03:00:03 10° WSW 03:03:17 22° WNW 03:06:33 10° N
Cosmos 1953 Rocket 4.1 02:59:09 10° NNW 03:03:22 40° W 03:07:32 10° SSW
Cosmos 1709 Rocket 4.0 03:01:56 10° NNW 03:08:07 74° W 03:14:12 10° S
